Time,TemperatureF,DewpointF,PressureIn,WindDirection,WindDirectionDegrees,WindSpeedMPH,WindSpeedGustMPH,Humidity,HourlyPrecipIn,Conditions,Clouds,dailyrainin,SoftwareType,DateUTC
2013-01-31 00:00:00,55.1,54.0,29.56,South,190,20.0,30.0,95,0.00,,,0.02,weatherlink.com 1.10,2013-01-31 05:00:00,
2013-01-31 00:15:00,55.1,54.0,29.54,South,181,27.0,28.0,94,0.00,,,0.00,weatherlink.com 1.10,2013-01-31 05:15:00,
2013-01-31 00:30:00,55.4,54.0,29.53,SSW,208,27.0,33.0,94,0.00,,,0.00,weatherlink.com 1.10,2013-01-31 05:30:00,
2013-01-31 00:45:00,55.0,53.0,29.52,South,183,16.0,27.0,94,0.00,,,0.00,weatherlink.com 1.10,2013-01-31 05:45:00,
2013-01-31 01:00:00,55.4,54.0,29.51,South,181,18.0,32.0,94,0.00,,,0.00,weatherlink.com 1.10,2013-01-31 06:00:00,
2013-01-31 01:15:00,55.8,54.0,29.51,SSW,208,20.0,35.0,93,0.00,,,0.00,weatherlink.com 1.10,2013-01-31 06:15:00,
2013-01-31 01:30:00,56.1,54.0,29.49,SW,214,23.0,31.0,92,0.00,,,0.00,weatherlink.com 1.10,2013-01-31 06:30:00,
2013-01-31 01:45:00,55.9,54.0,29.48,South,174,13.0,31.0,92,0.00,,,0.00,weatherlink.com 1.10,2013-01-31 06:45:00,
2013-01-31 02:00:00,55.4,53.0,29.47,South,177,14.0,31.0,92,0.00,,,0.00,weatherlink.com 1.10,2013-01-31 07:00:00,
2013-01-31 02:15:00,55.5,54.0,29.45,SSE,164,14.0,32.0,93,0.00,,,0.00,weatherlink.com 1.10,2013-01-31 07:15:00,
2013-01-31 02:30:00,55.4,54.0,29.44,South,169,16.0,31.0,93,0.00,,,0.00,weatherlink.com 1.10,2013-01-31 07:30:00,
2013-01-31 02:45:00,55.4,54.0,29.42,South,170,15.0,35.0,93,0.00,,,0.00,weatherlink.com 1.10,2013-01-31 07:45:00,
2013-01-31 03:00:00,55.5,53.0,29.40,South,176,18.0,35.0,92,0.00,,,0.00,weatherlink.com 1.10,2013-01-31 08:00:00,
2013-01-31 03:15:00,55.2,53.0,29.37,South,173,13.0,36.0,93,0.00,,,0.00,weatherlink.com 1.10,2013-01-31 08:15:00,
2013-01-31 03:30:00,55.1,53.0,29.37,SSE,160,12.0,26.0,93,0.00,,,0.00,weatherlink.com 1.10,2013-01-31 08:30:00,
2013-01-31 03:45:00,55.0,53.0,29.34,SSE,160,17.0,30.0,92,0.00,,,0.00,weatherlink.com 1.10,2013-01-31 08:45:00,
2013-01-31 04:00:00,55.0,53.0,29.34,SE,135,9.0,32.0,92,0.00,,,0.00,weatherlink.com 1.10,2013-01-31 09:00:00,
2013-01-31 04:15:00,55.0,53.0,29.32,South,183,13.0,33.0,92,0.00,,,0.00,weatherlink.com 1.10,2013-01-31 09:15:00,
2013-01-31 04:30:00,54.8,53.0,29.30,South,174,15.0,33.0,92,0.00,,,0.00,weatherlink.com 1.10,2013-01-31 09:30:00,
2013-01-31 04:45:00,55.1,53.0,29.28,South,183,20.0,33.0,92,0.00,,,0.00,weatherlink.com 1.10,2013-01-31 09:45:00,
2013-01-31 05:00:00,55.5,53.0,29.26,South,184,22.0,35.0,92,0.00,,,0.00,weatherlink.com 1.10,2013-01-31 10:00:00,
2013-01-31 05:15:00,55.7,54.0,29.25,South,176,31.0,37.0,92,0.00,,,0.00,weatherlink.com 1.10,2013-01-31 10:15:00,
2013-01-31 05:31:00,55.6,53.0,29.26,SSW,192,19.0,-999.0,92,-99.99,,,0.00,weatherlink.com 1.10,2013-01-31 10:31:00,
2013-01-31 05:46:00,55.2,54.0,29.25,SSE,162,25.0,34.0,94,0.00,,,0.00,weatherlink.com 1.10,2013-01-31 10:46:00,
2013-01-31 06:01:00,54.9,54.0,29.23,SSW,204,17.0,34.0,95,0.00,,,0.00,weatherlink.com 1.10,2013-01-31 11:01:00,
2013-01-31 06:16:00,55.3,54.0,29.21,South,183,16.0,36.0,95,0.00,,,0.00,weatherlink.com 1.10,2013-01-31 11:16:00,
2013-01-31 06:31:00,55.4,54.0,29.18,SSE,153,19.0,35.0,96,0.00,,,0.00,weatherlink.com 1.10,2013-01-31 11:31:00,
2013-01-31 06:46:00,55.0,54.0,29.17,South,170,15.0,30.0,96,0.00,,,0.00,weatherlink.com 1.10,2013-01-31 11:46:00,
2013-01-31 07:01:00,55.2,54.0,29.14,South,183,25.0,33.0,96,0.00,,,0.00,weatherlink.com 1.10,2013-01-31 12:01:00,
2013-01-31 07:16:00,55.5,55.0,29.14,South,190,15.0,38.0,97,0.00,,,0.00,weatherlink.com 1.10,2013-01-31 12:16:00,
2013-01-31 07:31:00,55.4,54.0,29.13,SSW,195,12.0,34.0,96,0.00,,,0.00,weatherlink.com 1.10,2013-01-31 12:31:00,
2013-01-31 07:46:00,55.7,55.0,29.12,South,172,19.0,38.0,97,0.00,,,0.00,weatherlink.com 1.10,2013-01-31 12:46:00,
2013-01-31 08:01:00,56.4,56.0,29.12,South,191,16.0,41.0,97,0.00,,,0.00,weatherlink.com 1.10,2013-01-31 13:01:00,
2013-01-31 08:16:00,56.8,56.0,29.12,South,185,25.0,41.0,97,0.00,,,0.00,weatherlink.com 1.10,2013-01-31 13:16:00,
2013-01-31 08:31:00,56.5,55.0,29.11,SSW,201,19.0,32.0,96,0.00,,,0.00,weatherlink.com 1.10,2013-01-31 13:31:00,
2013-01-31 08:46:00,55.5,55.0,29.10,SW,229,14.0,32.0,97,0.00,,,0.00,weatherlink.com 1.10,2013-01-31 13:46:00,
2013-01-31 09:01:00,55.1,54.0,29.10,SSW,212,16.0,30.0,97,0.00,,,0.00,weatherlink.com 1.10,2013-01-31 14:01:00,
2013-01-31 09:16:00,54.3,54.0,29.12,SW,217,19.0,36.0,97,0.00,,,0.00,weatherlink.com 1.10,2013-01-31 14:16:00,
2013-01-31 09:31:00,53.6,53.0,29.13,SW,222,27.0,41.0,96,0.00,,,0.00,weatherlink.com 1.10,2013-01-31 14:31:00,
2013-01-31 09:46:00,53.0,52.0,29.13,SSW,206,20.0,44.0,96,0.00,,,0.00,weatherlink.com 1.10,2013-01-31 14:46:00,
2013-01-31 10:01:00,51.6,50.0,29.14,WSW,246,17.0,40.0,94,0.00,,,0.00,weatherlink.com 1.10,2013-01-31 15:01:00,
2013-01-31 10:16:00,49.8,48.0,29.15,WSW,250,20.0,34.0,93,0.00,,,0.00,weatherlink.com 1.10,2013-01-31 15:16:00,
2013-01-31 10:31:00,50.4,43.0,29.16,WSW,253,24.0,38.0,77,0.00,,,0.00,weatherlink.com 1.10,2013-01-31 15:31:00,
2013-01-31 10:47:00,50.5,41.0,29.17,West,270,25.0,34.0,71,0.00,,,0.00,weatherlink.com 1.10,2013-01-31 15:47:00,
2013-01-31 11:02:00,50.2,43.0,29.18,SW,226,28.0,33.0,76,0.00,,,0.00,weatherlink.com 1.10,2013-01-31 16:02:00,
2013-01-31 11:17:00,49.5,42.0,29.18,SW,232,25.0,37.0,74,0.00,,,0.00,weatherlink.com 1.10,2013-01-31 16:17:00,
2013-01-31 11:32:00,48.5,39.0,29.19,SW,231,22.0,37.0,71,0.00,,,0.00,weatherlink.com 1.10,2013-01-31 16:32:00,
2013-01-31 11:47:00,48.2,39.0,29.19,WSW,240,27.0,35.0,70,0.00,,,0.00,weatherlink.com 1.10,2013-01-31 16:47:00,
2013-01-31 12:02:00,48.0,38.0,29.20,WSW,253,15.0,34.0,68,0.00,,,0.00,weatherlink.com 1.10,2013-01-31 17:02:00,
2013-01-31 12:17:00,47.3,38.0,29.21,SW,236,20.0,39.0,69,0.00,,,0.00,weatherlink.com 1.10,2013-01-31 17:17:00,
2013-01-31 12:32:00,46.9,37.0,29.21,SW,228,25.0,33.0,69,0.00,,,0.00,weatherlink.com 1.10,2013-01-31 17:32:00,
2013-01-31 12:47:00,46.8,37.0,29.21,SW,236,16.0,38.0,68,0.00,,,0.00,weatherlink.com 1.10,2013-01-31 17:47:00,
2013-01-31 13:02:00,46.5,36.0,29.23,WSW,246,22.0,35.0,68,0.00,,,0.00,weatherlink.com 1.10,2013-01-31 18:02:00,
2013-01-31 13:17:00,46.1,35.0,29.24,WSW,256,29.0,38.0,66,0.00,,,0.00,weatherlink.com 1.10,2013-01-31 18:17:00,
2013-01-31 13:32:00,45.9,35.0,29.25,West,259,29.0,34.0,65,0.00,,,0.00,weatherlink.com 1.10,2013-01-31 18:32:00,
2013-01-31 13:47:00,45.9,34.0,29.26,SW,234,18.0,35.0,64,0.00,,,0.00,weatherlink.com 1.10,2013-01-31 18:47:00,
2013-01-31 14:02:00,45.7,34.0,29.27,WSW,239,27.0,45.0,63,0.00,,,0.00,weatherlink.com 1.10,2013-01-31 19:02:00,
2013-01-31 14:17:00,45.6,33.0,29.28,WSW,252,23.0,40.0,62,0.00,,,0.00,weatherlink.com 1.10,2013-01-31 19:17:00,
2013-01-31 14:32:00,45.4,32.0,29.30,WSW,246,20.0,37.0,61,0.00,,,0.00,weatherlink.com 1.10,2013-01-31 19:32:00,
2013-01-31 14:47:00,45.2,32.0,29.31,West,278,19.0,34.0,61,0.00,,,0.00,weatherlink.com 1.10,2013-01-31 19:47:00,
2013-01-31 15:02:00,45.1,33.0,29.32,WSW,238,24.0,34.0,62,0.00,,,0.00,weatherlink.com 1.10,2013-01-31 20:02:00,
2013-01-31 15:17:00,44.8,31.0,29.33,West,259,21.0,39.0,60,0.00,,,0.00,weatherlink.com 1.10,2013-01-31 20:17:00,
2013-01-31 15:32:00,44.3,31.0,29.34,SW,231,20.0,32.0,60,0.00,,,0.00,weatherlink.com 1.10,2013-01-31 20:32:00,
2013-01-31 15:47:00,44.0,31.0,29.36,WSW,252,20.0,36.0,61,0.00,,,0.00,weatherlink.com 1.10,2013-01-31 20:47:00,
2013-01-31 16:02:00,43.9,30.0,29.37,West,268,12.0,40.0,59,0.00,,,0.00,weatherlink.com 1.10,2013-01-31 21:02:00,
2013-01-31 16:17:00,43.8,29.0,29.37,West,260,20.0,32.0,57,0.00,,,0.00,weatherlink.com 1.10,2013-01-31 21:17:00,
2013-01-31 16:32:00,43.3,29.0,29.39,SW,217,8.0,28.0,58,0.00,,,0.00,weatherlink.com 1.10,2013-01-31 21:32:00,
2013-01-31 16:47:00,42.8,29.0,29.40,SW,236,19.0,33.0,58,0.00,,,0.00,weatherlink.com 1.10,2013-01-31 21:47:00,
2013-01-31 17:02:00,42.7,28.0,29.41,WSW,244,23.0,32.0,56,0.00,,,0.00,weatherlink.com 1.10,2013-01-31 22:02:00,
2013-01-31 17:18:00,42.4,28.0,29.42,WSW,255,18.0,36.0,56,0.00,,,0.00,weatherlink.com 1.10,2013-01-31 22:18:00,
2013-01-31 17:33:00,42.2,28.0,29.43,WSW,249,17.0,32.0,57,0.00,,,0.00,weatherlink.com 1.10,2013-01-31 22:33:00,
2013-01-31 17:48:00,41.9,28.0,29.44,WSW,253,14.0,28.0,59,0.00,,,0.00,weatherlink.com 1.10,2013-01-31 22:48:00,
2013-01-31 18:03:00,41.8,28.0,29.46,SW,231,9.0,33.0,59,0.00,,,0.00,weatherlink.com 1.10,2013-01-31 23:03:00,
2013-01-31 18:18:00,41.7,27.0,29.47,SW,226,20.0,35.0,57,0.00,,,0.00,weatherlink.com 1.10,2013-01-31 23:18:00,
2013-01-31 18:33:00,41.6,27.0,29.47,WSW,242,21.0,36.0,56,0.00,,,0.00,weatherlink.com 1.10,2013-01-31 23:33:00,
2013-01-31 18:48:00,41.4,27.0,29.48,WSW,249,19.0,34.0,57,0.00,,,0.00,weatherlink.com 1.10,2013-01-31 23:48:00,
2013-01-31 19:03:00,41.3,26.0,29.49,WSW,247,23.0,33.0,55,0.00,,,0.00,weatherlink.com 1.10,2013-02-01 00:03:00,
2013-01-31 19:18:00,41.0,26.0,29.50,WSW,252,21.0,36.0,56,0.00,,,0.00,weatherlink.com 1.10,2013-02-01 00:18:00,
2013-01-31 19:33:00,40.7,25.0,29.51,SW,236,25.0,38.0,55,0.00,,,0.00,weatherlink.com 1.10,2013-02-01 00:33:00,
2013-01-31 19:48:00,40.3,26.0,29.52,SW,234,27.0,38.0,57,0.00,,,0.00,weatherlink.com 1.10,2013-02-01 00:48:00,
2013-01-31 20:03:00,40.0,27.0,29.53,WSW,250,22.0,34.0,61,0.00,,,0.00,weatherlink.com 1.10,2013-02-01 01:03:00,
2013-01-31 20:18:00,39.5,26.0,29.54,WSW,239,33.0,33.0,60,0.00,,,0.00,weatherlink.com 1.10,2013-02-01 01:18:00,
2013-01-31 20:33:00,39.2,22.0,29.54,WSW,242,28.0,36.0,51,0.00,,,0.00,weatherlink.com 1.10,2013-02-01 01:33:00,
2013-01-31 20:48:00,39.0,24.0,29.55,WSW,256,25.0,39.0,55,0.00,,,0.00,weatherlink.com 1.10,2013-02-01 01:48:00,
2013-01-31 21:03:00,38.7,23.0,29.56,West,268,14.0,30.0,54,0.00,,,0.00,weatherlink.com 1.10,2013-02-01 02:03:00,
2013-01-31 21:18:00,38.3,23.0,29.57,WSW,256,10.0,34.0,55,0.00,,,0.00,weatherlink.com 1.10,2013-02-01 02:18:00,
2013-01-31 21:33:00,38.1,24.0,29.58,WSW,255,13.0,-999.0,57,-99.99,,,0.00,weatherlink.com 1.10,2013-02-01 02:33:00,
2013-01-31 21:48:00,37.8,22.0,29.59,WSW,245,25.0,31.0,53,0.00,,,0.00,weatherlink.com 1.10,2013-02-01 02:48:00,
2013-01-31 22:03:00,37.2,21.0,29.59,WNW,285,15.0,29.0,53,0.00,,,0.00,weatherlink.com 1.10,2013-02-01 03:03:00,
2013-01-31 22:18:00,36.3,21.0,29.59,West,278,15.0,27.0,55,0.00,,,0.00,weatherlink.com 1.10,2013-02-01 03:18:00,
2013-01-31 22:33:00,35.9,21.0,29.60,West,281,24.0,28.0,55,0.00,,,0.00,weatherlink.com 1.10,2013-02-01 03:33:00,
2013-01-31 22:48:00,35.7,21.0,29.61,West,269,12.0,25.0,56,0.00,,,0.00,weatherlink.com 1.10,2013-02-01 03:48:00,
2013-01-31 23:03:00,35.4,22.0,29.62,West,262,10.0,22.0,58,0.00,,,0.00,weatherlink.com 1.10,2013-02-01 04:03:00,
2013-01-31 23:18:00,35.5,19.0,29.63,West,267,12.0,35.0,51,0.00,,,0.00,weatherlink.com 1.10,2013-02-01 04:18:00,
2013-01-31 23:33:00,34.7,16.0,29.63,West,278,13.0,32.0,47,0.00,,,0.00,weatherlink.com 1.10,2013-02-01 04:33:00,
2013-01-31 23:49:00,34.4,15.0,29.63,WSW,245,19.0,37.0,45,0.00,,,0.00,weatherlink.com 1.10,2013-02-01 04:49:00,